Home   Weather   Campo Grande   Past weeks

Flag for Brazil Past Weather in Campo Grande, Mato Grosso Do Sul, Brazil — Yesterday and Last 2 Weeks

82 °F

Partly sunny.

Feels Like: 85 °F
Forecast: 69 / 86 °F
Wind: 6 mph from North

Location: Campo Grande Aeroporto

Current Time: Oct 25, 2016 at 10:58:11 AM

Latest Report: Oct 25, 2016 at 10:00 AM

Visibility: N/A

Pressure: 29.95 "Hg (28.25 "Hg at 516m altitude)

Humidity: 58%

Dew Point: 66 °F

Location of Campo GrandeLocation

Past Weather in Campo Grande — Graph


Campo Grande Temperature Yesterday

Maximum temperature yesterday: 86 °F (at 2:00 PM)
Minimum temperature yesterday: 70 °F (at 4:00 AM)
Average temperature yesterday: 77 °F

High & Low Weather Summary for the Past Weeks

High95 °F (Oct 19, 4:00 PM)100% (Oct 14, 1:00 PM)30.09 "Hg (Oct 14, 1:00 PM)
Low48 °F (Oct 14, 1:00 PM)29% (Oct 10, 1:00 PM)29.80 "Hg (Oct 13, 2:00 AM)
Average79 °F64%29.92 "Hg
* Reported Oct 10 9:00 AM — Oct 25 10:00 AM, Campo Grande, Weather by CustomWeather, © 2016

Note: Actual official high and low records may vary slightly from our data, if they occured in-between our weather recording intervals... More about our weather records


Campo Grande Weather History for the Previous 24 Hours

Scroll right to see more
Time TempWeatherWind HumidityBarometerVisibility
10:00 AM
Tue, Oct 25
82 °FPartly sunny.6 mph58%29.95 "HgN/A
9:00 AM79 °FPartly sunny.2 mph70%29.95 "HgN/A
8:00 AM77 °FPartly sunny.7 mph74%29.92 "HgN/A
7:00 AM75 °FPartly sunny.5 mph78%29.92 "HgN/A
6:00 AM73 °FPartly sunny.6 mph83%29.92 "HgN/A
5:00 AM73 °FPassing clouds.6 mph83%29.89 "HgN/A
4:00 AM72 °FClear.3 mph83%29.86 "Hg10 mi
3:00 AM70 °FClear.3 mph83%29.86 "Hg10 mi
2:00 AM70 °FClear.5 mph83%29.89 "Hg10 mi
1:00 AM72 °FClear.2 mph83%29.92 "Hg10 mi
12:00 AM72 °FClear.3 mph83%29.92 "Hg10 mi
11:00 PM
Mon, Oct 24
70 °FPassing clouds.3 mph88%29.92 "HgN/A
10:00 PM73 °FClear.2 mph78%29.89 "Hg10 mi
9:00 PM73 °FClear.7 mph83%29.86 "Hg10 mi
8:00 PM75 °FPassing clouds.6 mph78%29.86 "HgN/A
7:00 PM77 °FPassing clouds.6 mph74%29.86 "HgN/A
6:00 PM81 °FScattered clouds.10 mph62%29.86 "HgN/A
5:00 PM82 °FBroken clouds.12 mph66%29.86 "HgN/A
4:00 PM84 °FBroken clouds.15 mph62%29.89 "HgN/A
3:00 PM86 °FBroken clouds.16 mph55%29.89 "HgN/A
2:00 PM86 °FBroken clouds.13 mph59%29.92 "HgN/A
1:00 PM82 °FBroken clouds.10 mph62%29.95 "HgN/A
12:00 PM82 °FBroken clouds.13 mph58%29.95 "HgN/A
11:00 AM81 °FBroken clouds.7 mph62%29.98 "HgN/A
10:00 AM81 °FScattered clouds.13 mph62%29.98 "HgN/A
Weather by CustomWeather, © 2016

See weather overviewHow to use our weather pages